Weather History for KP28 - October, 2011

Change the Weather History Date:

Tuesday, October 18, 2011

  Actual Average Record
Temperature  
Mean Temperature 50 °F 58 °F  
Max Temperature 61 °F 70 °F 92 °F (1943)
Min Temperature 41 °F 45 °F 23 °F (1948)
Degree Days  
Heating Degree Days 14 8  
Month to date heating degree days 102  
Since 1 July heating degree days 136  
Cooling Degree Days 0 1  
Month to date cooling degree days 34  
Year to date cooling degree days 1765  
Moisture  
Dew Point 33 °F    
Average Humidity 57    
Maximum Humidity 89    
Minimum Humidity 31    
Precipitation  
Precipitation 0.00 in 0.11 in 1.69 in (1965)
Month to date precipitation 1.76  
Year to date precipitation 24.21  
Snow  
Snow 0.00 in 0.00 in - ()
Month to date snowfall 0.0  
Since 1 July snowfall 0.0  
Since 1 September snowfall 0.0  
Snow Depth -    
Sea Level Pressure  
Sea Level Pressure 30.13 in    
Wind  
Wind Speed 13 mph (NNW)    
Max Wind Speed 25 mph    
Max Gust Speed 37 mph    
T = Trace of Precipitation, MM = Missing Value Source: NWS Daily Summary

Daily Weather History Graph

Daily Weather History Graph

Search for Another Location

Airport or City:

Trip Planner

Search our weather history database for the weather conditions in past years. The results will help you decide how hot, cold, wet, or windy it might be!

Date:

Astronomy

Oct. 18, 2011 Rise Set
Actual Time 7:44 AM CDT 6:53 PM CDT
Civil Twilight 7:18 AM CDT 7:19 PM CDT
Nautical Twilight 6:48 AM CDT 7:50 PM CDT
Astronomical Twilight 6:17 AM CDT 8:20 PM CDT
Moon 11:40 PM CDT (10/18) 1:32 PM CDT (10/18)
Length of Visible Light 12h 01m
Length of Day
11h 08m
Waning Gibbous, 64% of the Moon is Illuminated
Oct 18
Waning Gibbous
Oct 19
Last Quarter
Oct 26
New
Nov 2
First Quarter
Nov 10
Full

Hourly Weather History & Observations

Time (CDT) Temp. Windchill Dew Point Humidity Pressure Visibility Wind Dir Wind Speed Gust Speed Precip Events Conditions
12:56 AM 48.0 °F - 41.0 °F 77% 30.11 in - North 13.8 mph - N/A   Unknown
1:56 AM 48.9 °F - 41.0 °F 74% 30.11 in - North 15.0 mph 20.7 mph N/A   Unknown
2:56 AM 48.0 °F - 41.0 °F 77% 30.12 in - North 11.5 mph - N/A   Unknown
3:56 AM 45.0 °F 40.1 °F 39.9 °F 82% 30.11 in - North 9.2 mph - N/A   Unknown
4:56 AM 42.1 °F 37.7 °F 39.0 °F 89% 30.12 in - NW 6.9 mph - N/A   Unknown
5:56 AM 41.0 °F 38.0 °F 37.9 °F 89% 30.13 in - NW 4.6 mph - N/A   Unknown
6:56 AM 42.1 °F 37.1 °F 37.9 °F 85% 30.12 in - NW 8.1 mph - N/A   Unknown
7:56 AM 42.1 °F 36.6 °F 37.9 °F 85% 30.13 in - NNW 9.2 mph - N/A   Unknown
8:56 AM 46.9 °F - 37.0 °F 68% 30.14 in - NNW 12.7 mph 23.0 mph N/A   Unknown
9:56 AM 48.0 °F - 35.1 °F 61% 30.16 in - North 17.3 mph 25.3 mph N/A   Unknown
10:56 AM 54.0 °F - 35.1 °F 49% 30.15 in - NNW 19.6 mph 25.3 mph N/A   Unknown
11:56 AM 57.0 °F - 33.1 °F 40% 30.15 in - NNW 19.6 mph 26.5 mph N/A   Unknown
12:56 PM 57.0 °F - 30.9 °F 37% 30.14 in - North 19.6 mph 32.2 mph N/A   Unknown
1:56 PM 59.0 °F - 28.0 °F 31% 30.12 in - NNW 20.7 mph 33.4 mph N/A   Unknown
2:56 PM 59.0 °F - 28.9 °F 32% 30.11 in - NNW 25.3 mph 34.5 mph N/A   Unknown
3:56 PM 60.1 °F - 28.9 °F 31% 30.10 in - NNW 20.7 mph 33.4 mph N/A   Unknown
4:56 PM 59.0 °F - 28.0 °F 31% 30.11 in - North 20.7 mph 36.8 mph N/A   Unknown
5:56 PM 57.9 °F - 28.0 °F 32% 30.11 in - North 17.3 mph 25.3 mph N/A   Unknown
6:56 PM 55.0 °F - 26.1 °F 33% 30.12 in - North 12.7 mph 20.7 mph N/A   Unknown
7:56 PM 50.0 °F - 28.0 °F 43% 30.15 in - North 5.8 mph - N/A   Unknown
8:56 PM 45.0 °F 42.6 °F 28.0 °F 52% 30.16 in - North 4.6 mph - N/A   Unknown
9:56 PM 44.1 °F 41.5 °F 28.9 °F 55% 30.17 in - NNW 4.6 mph - N/A   Unknown
10:56 PM 43.0 °F 40.3 °F 28.9 °F 58% 30.16 in - NW 4.6 mph - N/A   Unknown
11:56 PM 41.0 °F - 30.0 °F 65% 30.15 in - Calm Calm - N/A   Unknown